Location: Killam
(52.7910°N, 111.8608°W)
Time: 16:31:45
(UTC+00:00)

Injun/Solrad 3 - Pass Details

Date: 24 February 2026
Orbit: 872 x 984 km, 66.8° (Epoch: 8 March)

Event Time Altitude Azimuth Distance (km) Brightness Sun altitude
Rises 03:48:53 0° 311° (NW) 3,593 12.1 -26.6°
Reaches altitude 10° 03:52:42 10° 287° (WNW) 2,668 11.3 -27.1°
Maximum altitude 03:55:43 14° 258° (WSW) 2,398 10.7 -27.6°
Drops below altitude 10° 03:58:45 10° 229° (SW) 2,695 10.6 -28.0°
Sets 04:02:40 0° 205° (SSW) 3,654 11.0 -28.5°
